Regional Weather Roundup
Issued by NWS

Home | Current Version | Previous Version | Text Only | Print | Product List | Glossary On
Versions: 1 2 3 4 5 6 7 8 9 10 11 12 13 14 15 16 17 18 19 20 21 22 23 24 25 26 27 28 29 30 31 32 33 34 35 36 37 38 39 40 41 42 43 44 45 46 47 48 49 50
000
ASUS43 KLSX 211107
RWRMO

WEATHER SUMMARY FOR MISSOURI
NATIONAL WEATHER SERVICE SPRINGFIELD MO
600 AM CDT SAT OCT 21 2017

NOTE: "FAIR" INDICATES FEW OR NO CLOUDS BELOW 12,000 FEET WITH NO
       SIGNIFICANT WEATHER AND/OR OBSTRUCTIONS TO VISIBILITY.
       CURRENT SKY AND/OR WEATHER CONDITIONS ARE NOT AVAILABLE FOR
       CHILLICOTHE AND FARMINGTON.

MOZ001>031-035>038-043-044-053-054-211200-
...NORTHERN AND WESTERN MISSOURI...

CITY           SKY/WX    TMP DP  RH WIND       PRES   REMARKS
KANSAS CTY INT CLOUDY    66  58  75 S24G36    29.81R
KANSAS C DTWN  CLOUDY    67  58  72 S13G28    29.83R
LEE`S SUMMIT   CLOUDY    64  56  75 S20G29    29.86R
ST JOSEPH      LGT RAIN  66  60  81 S16G26    29.78R
CHILLICOTHE      N/A     64  58  80 S10G17    29.87R
KIRKSVILLE     PTCLDY    62  56  80 S15G22    29.92R

$$
MOZ066>068-077>081-088>096-101>105-211200-
...SOUTHWEST MISSOURI...

CITY           SKY/WX    TMP DP  RH WIND       PRES   REMARKS
SPRINGFIELD    PTCLDY    63  57  81 S16       29.95S
JOPLIN         PTCLDY    64  59  83 MISG      29.91
BRANSON        PTCLDY    63  57  82 SE8       30.00S

$$
MOZ032>034-039>042-045>050-055>058-069>072-211200-
...CENTRAL MISSOURI...

CITY           SKY/WX    TMP DP  RH WIND       PRES   REMARKS
COLUMBIA       CLOUDY    62  55  77 S13       29.96R
JEFFERSON CITY CLOUDY    65  54  67 SE8       29.96S
ROLLA          PTCLDY    64  55  72 S15       30.01S
SEDALIA        MOCLDY    64  57  78 S14G23    29.93R
WHITEMAN AFB   CLEAR     63  55  76 S13       29.86R
WARRENSBURG    PTCLDY    63  54  72 SE9       29.89R
OSAGE BEACH    MOCLDY    64  55  72 S10       29.97S

$$
MOZ051-052-059>065-211200-
...EAST CENTRAL MISSOURI...

CITY           SKY/WX    TMP DP  RH WIND       PRES   REMARKS
ST LOUIS INTL  CLOUDY    63  53  70 SE8       30.05R
SPIRIT OF STL  MOCLDY    65  54  67 SE6       30.02S
ST CHARLES     CLOUDY    58  52  80 E9        30.03S

$$
MOZ072>076-082>087-097>100-106>115-211200-
...SOUTH CENTRAL AND SOUTHEAST MISSOURI...

CITY           SKY/WX    TMP DP  RH WIND       PRES   REMARKS
CAPE GIRARDEAU CLOUDY    60  50  69 S13       30.09S
FARMINGTON     MOCLDY    63  54  72 S8        30.08R
POPLAR BLUFF   MOCLDY    57  54  89 CALM      30.09R
WEST PLAINS    CLOUDY    61  56  83 S8        30.07S

$$



USA.gov is the U.S. government's official web portal to all federal, state and local government web resources and services.